sat.trackr.live / text

‹ back to catalog

STARLINK-37232

NORAD 69515 · 2026-133H

PAYLOAD ACTIVE UNKNOWN

§ Identity

Operator
Country
US
Launch date
2026-06-12
Launch site
AFETR
Launch vehicle
Mass (kg)
RCS (m²)

Purposes: comms

External: N2YO · Heavens-Above · Gunter

§ Orbital elements

Epoch: 2026-09-19T11:09:03.467808Z

Period
93.85 min
Inclination
53.1564°
Eccentricity
0.0001456
Mean motion
15.34404893 rev/d
Perigee alt
461.7 km
Apogee alt
463.7 km
Semi-major
6,840.8 km
B*
3.9376e-4
RAAN
234.6674°
Arg perigee
95.6882°
Mean anomaly
264.4286°
Rev number
1,533

§ Raw data

STARLINK-372321 69515U 26133H   26262.46462347  .00012953  00000+0  39376-3 0  99952 69515  53.1564 234.6674 0001456  95.6882 264.4286 15.34404893 15333

JSON: /api/v1/satellites/69515 · /tle

For live sub-satellite position, see the globe view (requires WebGL).

§ Visibility from observer

Set your observer location to see the next 7 days of passes ≥ 10°. The values pass through the URL so the page stays shareable.

No JS? Fill the form by hand. The geolocation button needs JavaScript.